Flag for Canada Weather past 2 weeks in Medicine Hat, Alberta, Canada

Now
63 °F

Passing clouds.


Feels Like: 63 °F
Forecast: 43 / 77 °F
Wind: 3 mph from Northeast

Location: Medicine Hat

Current Time: May 23, 2015 at 9:28:53 AM

Latest Report: May 23, 2015 at 9:00 AM


Visibility: 30 mi

Pressure: 30.09 "Hg

Humidity: 49%

Dew point: 43 °F

Location of Medicine HatLocation

Historic Weather in Medicine Hat — Graph

°F

Medicine Hat temperature yesterday

Maximum temperature yesterday: 79 °F (at 5:00 PM)
Minimum temperature yesterday: 43 °F (at 4:00 AM)
Average temperature yesterday: 63 °F

Past Weeks' High & Low Weather Summary

 TemperatureHumidityPressure
High79 °F (May 22, 5:00 PM)100% (May 16, 2:00 AM)30.49 "Hg (May 16, 2:00 AM)
Low27 °F (May 18, 4:00 AM)13% (May 21, 4:00 PM)29.82 "Hg (May 16, 4:00 AM)
Average51 °F50%30.14 "Hg
* Reported May 8 8:00 AM — May 23 8:00 AM, Medicine Hat, Weather by CustomWeather, © 2015

Note: Actual official high and low records may vary slightly from our data, if they occured in-between our weather recording intervals... More about our weather records

Advertising

Medicine Hat weather history for previous 24 hours

 ConditionsComfort  
Time TempWeatherWind HumidityBarometerVisibility
8:00 AM
Sat, May 23
55 °FPassing clouds.3 mph63%30.08 "Hg30 mi
7:00 AM50 °FPassing clouds.No wind71%30.08 "Hg30 mi
6:00 AM45 °FClear.No wind71%30.08 "Hg9 mi
5:00 AM46 °FPassing clouds.No wind71%30.06 "Hg9 mi
4:00 AM48 °FClear.5 mph62%30.05 "Hg9 mi
3:00 AM50 °FClear.8 mph58%30.04 "Hg9 mi
2:00 AM50 °FClear.5 mph58%30.03 "Hg9 mi
1:00 AM52 °FClear.3 mph54%30.01 "Hg9 mi
12:00 AM54 °FClear.No wind51%30.01 "Hg9 mi
11:00 PM
Fri, May 22
57 °FClear.7 mph44%29.99 "Hg9 mi
10:00 PM63 °FSunny.5 mph34%29.97 "Hg9 mi
9:00 PM68 °FPassing clouds.8 mph28%29.95 "Hg30 mi
8:00 PM73 °FPassing clouds.8 mph20%29.93 "Hg30 mi
7:00 PM75 °FPassing clouds.6 mph18%29.94 "Hg30 mi
6:00 PM77 °FPassing clouds.8 mph15%29.95 "Hg30 mi
5:00 PM79 °FScattered clouds.16 mph15%29.93 "Hg30 mi
4:00 PM77 °FScattered clouds.10 mph18%29.94 "Hg30 mi
3:00 PM77 °FPassing clouds.9 mph17%29.94 "Hg30 mi
2:00 PM77 °FPassing clouds.2 mph14%29.96 "Hg30 mi
1:00 PM73 °FPassing clouds.8 mph17%29.97 "Hg30 mi
12:00 PM72 °FPassing clouds.8 mph17%29.97 "Hg30 mi
11:00 AM72 °FPassing clouds.9 mph19%29.98 "Hg30 mi
10:00 AM70 °FPassing clouds.6 mph18%29.98 "Hg30 mi
9:00 AM68 °FSunny.10 mph23%29.98 "Hg30 mi
Weather by CustomWeather, © 2015

See weather overviewHow to use our weather pages